Year,Month,Day,Hour,Minute,Value (Times are PST for temperature in C)
2005,12,09,00,00,3.00
2005,12,09,00,01,2.90
2005,12,09,00,02,2.90
2005,12,09,00,03,2.90
2005,12,09,00,04,2.90
2005,12,09,00,05,2.90
2005,12,09,00,06,2.90
2005,12,09,00,07,2.90
2005,12,09,00,08,2.90
2005,12,09,00,09,2.90
2005,12,09,00,10,2.90
2005,12,09,00,11,2.90
2005,12,09,00,12,2.90
2005,12,09,00,13,2.90
2005,12,09,00,14,2.90
2005,12,09,00,15,2.90
2005,12,09,00,16,2.90
2005,12,09,00,17,2.90
2005,12,09,00,18,2.90
2005,12,09,00,19,2.90
2005,12,09,00,20,2.90
2005,12,09,00,21,2.90
2005,12,09,00,22,2.80
2005,12,09,00,23,2.80
2005,12,09,00,24,2.70
2005,12,09,00,25,2.70
2005,12,09,00,26,2.70
2005,12,09,00,27,2.60
2005,12,09,00,28,2.60
2005,12,09,00,29,2.60
2005,12,09,00,30,2.50
2005,12,09,00,31,2.50
2005,12,09,00,32,2.50
2005,12,09,00,33,2.50
2005,12,09,00,34,2.40
2005,12,09,00,35,2.40
2005,12,09,00,36,2.40
2005,12,09,00,37,2.30
2005,12,09,00,38,2.30
2005,12,09,00,39,2.40
2005,12,09,00,40,2.40
2005,12,09,00,41,2.50
2005,12,09,00,42,2.50
2005,12,09,00,43,2.50
2005,12,09,00,44,2.50
2005,12,09,00,45,2.50
2005,12,09,00,46,2.50
2005,12,09,00,47,2.50
2005,12,09,00,48,2.50
2005,12,09,00,49,2.50
2005,12,09,00,50,2.50
2005,12,09,00,51,2.60
2005,12,09,00,52,2.60
2005,12,09,00,53,2.60
2005,12,09,00,54,2.60
2005,12,09,00,55,2.60
2005,12,09,00,56,2.60
2005,12,09,00,57,2.60
2005,12,09,00,58,2.60
2005,12,09,00,59,2.60
2005,12,09,01,00,2.50
2005,12,09,01,01,2.50
2005,12,09,01,02,2.50
2005,12,09,01,03,2.50
2005,12,09,01,04,2.40
2005,12,09,01,05,2.30
2005,12,09,01,06,2.30
2005,12,09,01,07,2.20
2005,12,09,01,08,2.20
2005,12,09,01,09,2.10
2005,12,09,01,10,2.10
2005,12,09,01,11,2.10
2005,12,09,01,12,2.00
2005,12,09,01,13,2.00
2005,12,09,01,14,2.00
2005,12,09,01,15,2.00
2005,12,09,01,16,2.00
2005,12,09,01,17,2.10
2005,12,09,01,18,2.10
2005,12,09,01,19,2.20
2005,12,09,01,20,2.20
2005,12,09,01,21,2.20
2005,12,09,01,22,2.20
2005,12,09,01,23,2.20
2005,12,09,01,24,2.20
2005,12,09,01,25,2.20
2005,12,09,01,26,2.20
2005,12,09,01,27,2.20
2005,12,09,01,28,2.20
2005,12,09,01,29,2.20
2005,12,09,01,30,2.20
2005,12,09,01,31,2.10
2005,12,09,01,32,2.10
2005,12,09,01,33,2.00
2005,12,09,01,34,2.00
2005,12,09,01,35,1.90
2005,12,09,01,36,1.90
2005,12,09,01,37,1.90
2005,12,09,01,38,1.90
2005,12,09,01,39,1.90
2005,12,09,01,40,1.80
2005,12,09,01,41,1.80
2005,12,09,01,42,1.80
2005,12,09,01,43,1.80
2005,12,09,01,44,1.80
2005,12,09,01,45,1.80
2005,12,09,01,46,1.70
2005,12,09,01,47,1.70
2005,12,09,01,48,1.70
2005,12,09,01,49,1.70
2005,12,09,01,50,1.60
2005,12,09,01,51,1.60
2005,12,09,01,52,1.60
2005,12,09,01,53,1.50
2005,12,09,01,54,1.50
2005,12,09,01,55,1.50
2005,12,09,01,56,1.40
2005,12,09,01,57,1.40
2005,12,09,01,58,1.50
2005,12,09,01,59,1.50
2005,12,09,02,00,1.50
2005,12,09,02,01,1.60
2005,12,09,02,02,1.60
2005,12,09,02,03,1.60
2005,12,09,02,04,1.70
2005,12,09,02,05,1.70
2005,12,09,02,06,1.70
2005,12,09,02,07,1.70
2005,12,09,02,08,1.80
2005,12,09,02,09,1.80
2005,12,09,02,10,1.80
2005,12,09,02,11,1.80
2005,12,09,02,12,1.80
2005,12,09,02,13,1.80
2005,12,09,02,14,1.80
2005,12,09,02,15,1.80
2005,12,09,02,16,1.80
2005,12,09,02,17,1.70
2005,12,09,02,18,1.70
2005,12,09,02,19,1.60
2005,12,09,02,20,1.60
2005,12,09,02,21,1.50
2005,12,09,02,22,1.50
2005,12,09,02,23,1.60
2005,12,09,02,24,1.60
2005,12,09,02,25,1.60
2005,12,09,02,26,1.60
2005,12,09,02,27,1.60
2005,12,09,02,28,1.60
2005,12,09,02,29,1.60
2005,12,09,02,30,1.60
2005,12,09,02,31,1.60
2005,12,09,02,32,1.60
2005,12,09,02,33,1.70
2005,12,09,02,34,1.70
2005,12,09,02,35,1.70
2005,12,09,02,36,1.70
2005,12,09,02,37,1.70
2005,12,09,02,38,1.70
2005,12,09,02,39,1.70
2005,12,09,02,40,1.70
2005,12,09,02,41,1.70
2005,12,09,02,42,1.70
2005,12,09,02,43,1.70
2005,12,09,02,44,1.60
2005,12,09,02,45,1.60
2005,12,09,02,46,1.60
2005,12,09,02,47,1.60
2005,12,09,02,48,1.60
2005,12,09,02,49,1.60
2005,12,09,02,50,1.60
2005,12,09,02,51,1.60
2005,12,09,02,52,1.60
2005,12,09,02,53,1.60
2005,12,09,02,54,1.70
2005,12,09,02,55,1.70
2005,12,09,02,56,1.70
2005,12,09,02,57,1.70
2005,12,09,02,58,1.70
2005,12,09,02,59,1.70
2005,12,09,03,00,1.80
2005,12,09,03,01,1.80
2005,12,09,03,02,1.80
2005,12,09,03,03,1.80
2005,12,09,03,04,1.80
2005,12,09,03,05,1.80
2005,12,09,03,06,1.80
2005,12,09,03,07,1.80
2005,12,09,03,08,1.80
2005,12,09,03,09,1.90
2005,12,09,03,10,1.90
2005,12,09,03,11,1.90
2005,12,09,03,12,1.90
2005,12,09,03,13,1.90
2005,12,09,03,14,2.00
2005,12,09,03,15,2.00
2005,12,09,03,16,2.00
2005,12,09,03,17,2.00
2005,12,09,03,18,2.10
2005,12,09,03,19,2.20
2005,12,09,03,20,2.20
2005,12,09,03,21,2.20
2005,12,09,03,22,2.20
2005,12,09,03,23,2.20
2005,12,09,03,24,2.20
2005,12,09,03,25,2.20
2005,12,09,03,26,2.20
2005,12,09,03,27,2.20
2005,12,09,03,28,2.20
2005,12,09,03,29,2.20
2005,12,09,03,30,2.20
2005,12,09,03,31,2.20
2005,12,09,03,32,2.30
2005,12,09,03,33,2.30
2005,12,09,03,34,2.30
2005,12,09,03,35,2.20
2005,12,09,03,36,2.20
2005,12,09,03,37,2.10
2005,12,09,03,38,2.10
2005,12,09,03,39,2.10
2005,12,09,03,40,2.00
2005,12,09,07,27,4.20
2005,12,09,07,30,4.20
2005,12,09,07,31,4.20
2005,12,09,07,32,4.20
2005,12,09,07,34,4.20
2005,12,09,07,35,4.20
2005,12,09,07,36,4.20
2005,12,09,07,37,4.20
2005,12,09,07,38,4.20
2005,12,09,07,39,4.20
2005,12,09,07,40,4.20
2005,12,09,07,41,4.20
2005,12,09,07,42,4.20
2005,12,09,07,43,4.20
2005,12,09,07,44,4.20
2005,12,09,07,45,4.30
2005,12,09,07,46,4.30
2005,12,09,07,47,4.30
2005,12,09,07,48,4.30
2005,12,09,07,49,4.30
2005,12,09,07,50,4.20
2005,12,09,07,51,4.20
2005,12,09,07,52,4.30
2005,12,09,07,53,4.30
2005,12,09,07,54,4.30
2005,12,09,07,55,4.30
2005,12,09,07,56,4.30
2005,12,09,07,57,4.30
2005,12,09,07,58,4.30
2005,12,09,07,59,4.30
2005,12,09,08,00,4.30
2005,12,09,08,01,4.30
2005,12,09,08,02,4.30
2005,12,09,08,03,4.30
2005,12,09,08,04,4.30
2005,12,09,08,05,4.30
2005,12,09,08,06,4.30
2005,12,09,08,07,4.30
2005,12,09,08,08,4.30
2005,12,09,08,09,4.20
2005,12,09,08,10,4.30
2005,12,09,08,11,4.30
2005,12,09,08,12,4.30
2005,12,09,08,13,4.30
2005,12,09,08,14,4.30
2005,12,09,08,15,4.30
2005,12,09,08,16,4.30
2005,12,09,08,17,4.30
2005,12,09,08,18,4.30
2005,12,09,08,19,4.30
2005,12,09,08,20,4.30
2005,12,09,08,21,4.30
2005,12,09,08,22,4.30
2005,12,09,08,23,4.30
2005,12,09,08,24,4.30
2005,12,09,08,25,4.40
2005,12,09,08,26,4.40
2005,12,09,08,27,4.40
2005,12,09,08,28,4.40
2005,12,09,08,29,4.50
2005,12,09,08,30,4.50
2005,12,09,08,31,4.60
2005,12,09,08,32,4.60
2005,12,09,08,33,4.60
2005,12,09,08,34,4.60
2005,12,09,08,35,4.70
2005,12,09,08,36,4.70
2005,12,09,08,37,4.70
2005,12,09,08,38,4.70
2005,12,09,08,39,4.70
2005,12,09,08,40,4.70
2005,12,09,08,41,4.70
2005,12,09,08,42,4.70
2005,12,09,08,43,4.70
2005,12,09,08,44,4.70
2005,12,09,08,45,4.70
2005,12,09,08,46,4.80
2005,12,09,08,47,4.80
2005,12,09,08,48,4.80
2005,12,09,08,49,4.80
2005,12,09,08,50,4.80
2005,12,09,08,51,4.80
2005,12,09,08,52,4.70
2005,12,09,08,53,4.80
2005,12,09,08,54,4.90
2005,12,09,08,55,4.90
2005,12,09,08,56,4.90
2005,12,09,08,57,4.90
2005,12,09,08,58,4.90
2005,12,09,08,59,4.90
2005,12,09,09,00,4.90
2005,12,09,09,01,4.90
2005,12,09,09,02,4.90
2005,12,09,09,03,4.90
2005,12,09,09,04,4.80
2005,12,09,09,05,4.80
2005,12,09,09,06,4.80
2005,12,09,09,07,4.80
2005,12,09,09,08,4.80
2005,12,09,09,09,4.80
2005,12,09,09,10,4.80
2005,12,09,09,11,4.80
2005,12,09,09,12,4.80
2005,12,09,09,13,4.80
2005,12,09,09,14,4.80
2005,12,09,09,15,4.80
2005,12,09,09,16,4.80
2005,12,09,09,17,4.80
2005,12,09,09,18,4.70
2005,12,09,09,19,4.70
2005,12,09,09,20,4.70
2005,12,09,09,21,4.70
2005,12,09,09,22,4.70
2005,12,09,09,23,4.70
2005,12,09,09,24,4.70
2005,12,09,09,25,4.70
2005,12,09,09,26,4.70
2005,12,09,09,27,4.70
2005,12,09,09,28,4.70
2005,12,09,09,29,4.70
2005,12,09,09,30,4.70
2005,12,09,09,31,4.70
2005,12,09,09,32,4.70
2005,12,09,09,33,4.70
2005,12,09,09,34,4.70
2005,12,09,09,35,4.70
2005,12,09,09,36,4.70
2005,12,09,09,37,4.60
2005,12,09,09,38,4.60
2005,12,09,09,39,4.60
2005,12,09,09,40,4.60
2005,12,09,09,41,4.60
2005,12,09,09,42,4.60
2005,12,09,09,43,4.70
2005,12,09,09,44,4.70
2005,12,09,09,45,4.70
2005,12,09,09,46,4.70
2005,12,09,09,47,4.70
2005,12,09,09,48,4.70
2005,12,09,09,49,4.70
2005,12,09,09,50,4.70
2005,12,09,09,51,4.70
2005,12,09,09,52,4.70
2005,12,09,09,53,4.70
2005,12,09,09,54,4.70
2005,12,09,09,55,4.70
2005,12,09,09,56,4.70
2005,12,09,09,57,4.70
2005,12,09,09,58,4.60
2005,12,09,09,59,4.70
2005,12,09,10,00,4.70
2005,12,09,10,01,4.70
2005,12,09,10,02,4.70
2005,12,09,10,03,4.70
2005,12,09,10,04,4.70
2005,12,09,10,05,4.80
2005,12,09,10,06,4.80
2005,12,09,10,07,4.70
2005,12,09,10,08,4.70
2005,12,09,10,09,4.70
2005,12,09,10,10,4.70
2005,12,09,10,11,4.70
2005,12,09,10,12,4.70
2005,12,09,10,13,4.70
2005,12,09,10,14,4.70
2005,12,09,10,15,4.70
2005,12,09,10,16,4.70
2005,12,09,10,17,4.70
2005,12,09,10,18,4.70
2005,12,09,10,19,4.70
2005,12,09,10,20,4.70
2005,12,09,10,21,4.70
2005,12,09,10,22,4.70
2005,12,09,10,23,4.70
2005,12,09,10,24,4.70
2005,12,09,10,25,4.70
2005,12,09,10,26,4.70
2005,12,09,10,27,4.70
2005,12,09,10,28,4.70
2005,12,09,10,29,4.70
2005,12,09,10,30,4.70
2005,12,09,10,31,4.70
2005,12,09,10,32,4.70
2005,12,09,10,33,4.70
2005,12,09,10,34,4.70
2005,12,09,10,35,4.70
2005,12,09,10,36,4.70
2005,12,09,10,37,4.70
2005,12,09,10,38,4.70
2005,12,09,10,39,4.70
2005,12,09,10,40,4.70
2005,12,09,10,41,4.70
2005,12,09,10,42,4.70
2005,12,09,10,43,4.70
2005,12,09,10,44,4.80
2005,12,09,10,45,4.70
2005,12,09,10,46,4.70
2005,12,09,10,47,4.70
2005,12,09,10,48,4.70
2005,12,09,10,49,4.70
2005,12,09,10,50,4.70
2005,12,09,10,51,4.70
2005,12,09,10,52,4.80
2005,12,09,10,53,4.80
2005,12,09,10,54,4.80
2005,12,09,10,55,4.80
2005,12,09,10,56,4.80
2005,12,09,10,57,4.80
2005,12,09,10,58,4.80
2005,12,09,10,59,4.90
2005,12,09,11,00,4.90
2005,12,09,11,01,4.90
2005,12,09,11,02,4.90
2005,12,09,11,03,4.90
2005,12,09,11,04,4.90
2005,12,09,11,05,4.90
2005,12,09,11,06,4.90
2005,12,09,11,07,4.90
2005,12,09,11,08,4.90
2005,12,09,11,09,4.90
2005,12,09,11,10,4.90
2005,12,09,11,11,4.90
2005,12,09,11,12,4.90
2005,12,09,11,13,4.90
2005,12,09,11,14,4.90
2005,12,09,11,15,4.90
2005,12,09,11,16,4.90
2005,12,09,11,17,4.80
2005,12,09,11,18,4.90
2005,12,09,11,19,4.90
2005,12,09,11,20,4.90
2005,12,09,11,21,4.90
2005,12,09,11,22,4.90
2005,12,09,11,23,4.90
2005,12,09,11,24,4.80
2005,12,09,11,25,4.80
2005,12,09,11,26,4.80
2005,12,09,11,27,4.80
2005,12,09,11,28,4.80
2005,12,09,11,29,4.80
2005,12,09,11,30,4.80
2005,12,09,11,31,4.80
2005,12,09,11,32,4.80
2005,12,09,11,33,4.80
2005,12,09,11,34,4.80
2005,12,09,11,35,4.90
2005,12,09,11,36,4.90
2005,12,09,11,37,4.90
2005,12,09,11,38,4.90
2005,12,09,11,39,4.90
2005,12,09,11,40,4.90
2005,12,09,11,41,4.90
2005,12,09,11,42,4.90
2005,12,09,11,43,4.90
2005,12,09,11,44,4.90
2005,12,09,11,45,4.90
2005,12,09,11,46,4.90
2005,12,09,11,47,4.90
2005,12,09,11,48,4.90
2005,12,09,11,49,4.80
2005,12,09,11,50,4.80
2005,12,09,11,51,4.80
2005,12,09,11,52,4.80
2005,12,09,11,53,4.80
2005,12,09,11,54,4.80
2005,12,09,11,55,4.80
2005,12,09,11,56,4.80
2005,12,09,11,57,4.80
2005,12,09,11,58,4.90
2005,12,09,11,59,4.90
2005,12,09,12,00,4.90
2005,12,09,12,01,4.80
2005,12,09,12,02,4.80
2005,12,09,12,03,4.80
2005,12,09,12,04,4.70
2005,12,09,12,05,4.70
2005,12,09,12,06,4.70
2005,12,09,12,07,4.70
2005,12,09,12,08,4.70
2005,12,09,12,09,4.80
2005,12,09,12,10,4.80
2005,12,09,12,11,4.80
2005,12,09,12,12,4.90
2005,12,09,12,13,4.90
2005,12,09,12,14,4.90
2005,12,09,12,15,5.00
2005,12,09,12,16,5.10
2005,12,09,12,17,5.10
2005,12,09,12,18,5.10
2005,12,09,12,19,5.10
2005,12,09,12,20,5.10
2005,12,09,12,21,5.10
2005,12,09,12,22,4.90
2005,12,09,12,23,4.90
2005,12,09,12,24,4.90
2005,12,09,12,25,4.90
2005,12,09,12,26,4.90
2005,12,09,12,27,4.90
2005,12,09,12,28,4.90
2005,12,09,12,29,4.90
2005,12,09,12,30,4.90
2005,12,09,12,31,4.90
2005,12,09,12,32,4.90
2005,12,09,12,33,4.80
2005,12,09,12,34,4.80
2005,12,09,12,35,4.80
2005,12,09,12,36,4.80
2005,12,09,12,37,4.80
2005,12,09,12,38,4.80
2005,12,09,12,39,4.80
2005,12,09,12,40,4.80
2005,12,09,12,41,4.80
2005,12,09,12,42,4.80
2005,12,09,12,43,4.80
2005,12,09,12,44,4.80
2005,12,09,12,45,4.80
2005,12,09,12,46,4.80
2005,12,09,12,47,4.80
2005,12,09,12,48,4.80
2005,12,09,12,49,4.80
2005,12,09,12,50,4.80
2005,12,09,12,51,4.80
2005,12,09,12,52,4.80
2005,12,09,12,53,4.80
2005,12,09,12,54,4.80
2005,12,09,12,55,4.80
2005,12,09,12,56,4.90
2005,12,09,12,57,4.90
2005,12,09,12,58,4.90
2005,12,09,12,59,4.90
2005,12,09,13,00,4.90
2005,12,09,13,01,4.90
2005,12,09,13,02,4.90
2005,12,09,13,03,4.90
2005,12,09,13,04,4.90
2005,12,09,13,05,4.90
2005,12,09,13,06,4.90
2005,12,09,13,07,4.90
2005,12,09,13,08,4.90
2005,12,09,13,09,4.90
2005,12,09,13,10,4.90
2005,12,09,13,11,4.90
2005,12,09,13,12,4.90
2005,12,09,13,13,4.90
2005,12,09,13,14,4.90
2005,12,09,13,15,4.90
2005,12,09,13,16,4.90
2005,12,09,13,17,4.90
2005,12,09,13,18,4.90
2005,12,09,13,19,4.90
2005,12,09,13,20,4.90
2005,12,09,13,21,4.90
2005,12,09,13,22,4.90
2005,12,09,13,23,4.90
2005,12,09,13,24,4.90
2005,12,09,13,25,4.90
2005,12,09,13,26,4.90
2005,12,09,13,27,4.90
2005,12,09,13,28,4.90
2005,12,09,13,29,5.00
2005,12,09,13,30,5.10
2005,12,09,13,31,5.10
2005,12,09,13,32,5.10
2005,12,09,13,33,5.10
2005,12,09,13,34,5.10
2005,12,09,13,35,5.10
2005,12,09,13,36,5.10
2005,12,09,13,37,5.10
2005,12,09,13,38,5.10
2005,12,09,13,39,5.10
2005,12,09,13,40,5.20
2005,12,09,13,41,5.20
2005,12,09,13,42,5.20
2005,12,09,13,43,5.20
2005,12,09,13,44,5.30
2005,12,09,13,45,5.30
2005,12,09,13,46,5.30
2005,12,09,13,47,5.20
2005,12,09,13,48,5.20
2005,12,09,13,49,5.20
2005,12,09,13,50,5.20
2005,12,09,13,51,5.30
2005,12,09,13,52,5.30
2005,12,09,13,53,5.30
2005,12,09,13,54,5.30
2005,12,09,13,55,5.30
2005,12,09,13,56,5.30
2005,12,09,13,57,5.30
2005,12,09,13,58,5.30
2005,12,09,13,59,5.30
2005,12,09,14,00,5.30
2005,12,09,14,01,5.30
2005,12,09,14,02,5.30
2005,12,09,14,03,5.30
2005,12,09,14,04,5.30
2005,12,09,14,05,5.30
2005,12,09,14,06,5.30
2005,12,09,14,07,5.30
2005,12,09,14,08,5.30
2005,12,09,14,09,5.30
2005,12,09,14,10,5.30
2005,12,09,14,11,5.40
2005,12,09,14,12,5.40
2005,12,09,14,13,5.40
2005,12,09,14,14,5.50
2005,12,09,14,15,5.40
2005,12,09,14,16,5.50
2005,12,09,14,17,5.50
2005,12,09,14,18,5.50
2005,12,09,14,19,5.50
2005,12,09,14,20,5.50
2005,12,09,14,21,5.50
2005,12,09,14,22,5.50
2005,12,09,14,23,5.50
2005,12,09,14,24,5.50
2005,12,09,14,25,5.50
2005,12,09,14,26,5.50
2005,12,09,14,27,5.50
2005,12,09,14,28,5.60
2005,12,09,14,29,5.60
2005,12,09,14,30,5.70
2005,12,09,14,31,5.70
2005,12,09,14,32,5.70
2005,12,09,14,33,5.70
2005,12,09,14,34,5.70
2005,12,09,14,35,5.70
2005,12,09,14,36,5.70
2005,12,09,14,37,5.70
2005,12,09,14,38,5.60
2005,12,09,14,39,5.60
2005,12,09,14,40,5.70
2005,12,09,14,41,5.70
2005,12,09,14,42,5.70
2005,12,09,14,43,5.70
2005,12,09,14,44,5.60
2005,12,09,14,45,5.60
2005,12,09,14,46,5.60
2005,12,09,14,47,5.70
2005,12,09,14,48,5.70
2005,12,09,14,49,5.70
2005,12,09,14,50,5.70
2005,12,09,14,51,5.70
2005,12,09,14,52,5.70
2005,12,09,14,53,5.70
2005,12,09,14,54,5.70
2005,12,09,14,55,5.70
2005,12,09,14,56,5.70
2005,12,09,14,57,5.70
2005,12,09,14,58,5.70
2005,12,09,14,59,5.70
2005,12,09,15,00,5.70
2005,12,09,15,01,5.70
2005,12,09,15,02,5.70
2005,12,09,15,03,5.70
2005,12,09,15,04,5.70
2005,12,09,15,05,5.70
2005,12,09,15,06,5.70
2005,12,09,15,07,5.70
2005,12,09,15,08,5.70
2005,12,09,15,09,5.70
2005,12,09,15,10,5.70
2005,12,09,15,11,5.70
2005,12,09,15,12,5.70
2005,12,09,15,13,5.70
2005,12,09,15,14,5.70
2005,12,09,15,15,5.70
2005,12,09,15,16,5.70
2005,12,09,15,17,5.70
2005,12,09,15,18,5.60
2005,12,09,15,19,5.60
2005,12,09,15,20,5.50
2005,12,09,15,21,5.50
2005,12,09,15,22,5.40
2005,12,09,15,23,5.40
2005,12,09,15,24,5.40
2005,12,09,15,25,5.40
2005,12,09,15,26,5.30
2005,12,09,15,27,5.30
2005,12,09,15,28,5.40
2005,12,09,15,29,5.40
2005,12,09,15,30,5.40
2005,12,09,15,31,5.40
2005,12,09,15,32,5.40
2005,12,09,15,33,5.30
2005,12,09,15,34,5.30
2005,12,09,15,35,5.30
2005,12,09,15,36,5.30
2005,12,09,15,37,5.30
2005,12,09,15,38,5.30
2005,12,09,15,39,5.30
2005,12,09,15,40,5.30
2005,12,09,15,41,5.30
2005,12,09,15,42,5.30
2005,12,09,15,43,5.30
2005,12,09,15,44,5.30
2005,12,09,15,45,5.30
2005,12,09,15,46,5.20
2005,12,09,15,47,5.20
2005,12,09,15,48,5.20
2005,12,09,15,49,5.20
2005,12,09,15,50,5.20
2005,12,09,15,51,5.20
2005,12,09,15,52,5.20
2005,12,09,15,53,5.10
2005,12,09,15,54,5.10
2005,12,09,15,55,5.10
2005,12,09,15,56,5.10
2005,12,09,15,57,5.10
2005,12,09,15,58,5.10
2005,12,09,15,59,5.00
2005,12,09,16,00,4.90
2005,12,09,16,01,4.90
2005,12,09,16,02,4.90
2005,12,09,16,03,4.90
2005,12,09,16,04,4.80
2005,12,09,16,05,4.80
2005,12,09,16,06,4.90
2005,12,09,16,07,4.90
2005,12,09,16,08,4.80
2005,12,09,16,09,4.80
2005,12,09,16,10,4.70
2005,12,09,16,11,4.70
2005,12,09,16,12,4.70
2005,12,09,16,13,4.70
2005,12,09,16,14,4.60
2005,12,09,16,15,4.60
2005,12,09,16,16,4.60
2005,12,09,16,17,4.60
2005,12,09,16,18,4.60
2005,12,09,16,19,4.60
2005,12,09,16,20,4.60
2005,12,09,16,21,4.60
2005,12,09,16,22,4.60
2005,12,09,16,23,4.60
2005,12,09,16,24,4.50
2005,12,09,16,25,4.50
2005,12,09,16,26,4.50
2005,12,09,16,27,4.50
2005,12,09,16,28,4.50
2005,12,09,16,29,4.50
2005,12,09,16,30,4.50
2005,12,09,16,31,4.50
2005,12,09,16,32,4.40
2005,12,09,16,33,4.40
2005,12,09,16,34,4.40
2005,12,09,16,35,4.40
2005,12,09,16,36,4.40
2005,12,09,16,37,4.50
2005,12,09,16,38,4.50
2005,12,09,16,39,4.50
2005,12,09,16,40,4.50
2005,12,09,16,41,4.50
2005,12,09,16,42,4.50
2005,12,09,16,43,4.50
2005,12,09,16,44,4.50
2005,12,09,16,45,4.50
2005,12,09,16,46,4.50
2005,12,09,16,47,4.50
2005,12,09,16,48,4.50
2005,12,09,16,49,4.50
2005,12,09,16,50,4.40
2005,12,09,16,51,4.40
2005,12,09,16,52,4.40
2005,12,09,16,53,4.40
2005,12,09,16,54,4.50
2005,12,09,16,55,4.50
2005,12,09,16,56,4.40
2005,12,09,16,57,4.40
2005,12,09,16,58,4.40
2005,12,09,16,59,4.40
2005,12,09,17,00,4.30
2005,12,09,17,01,4.30
2005,12,09,17,02,4.20
2005,12,09,17,03,4.20
2005,12,09,17,04,4.20
2005,12,09,17,05,4.20
2005,12,09,17,06,4.20
2005,12,09,17,07,4.10
2005,12,09,17,08,4.10
2005,12,09,17,09,4.00
2005,12,09,17,10,4.00
2005,12,09,17,11,4.00
2005,12,09,17,12,4.00
2005,12,09,17,13,4.00
2005,12,09,17,14,4.00
2005,12,09,17,15,4.00
2005,12,09,17,16,3.90
2005,12,09,17,17,3.90
2005,12,09,17,18,3.90
2005,12,09,17,19,3.90
2005,12,09,17,20,3.90
2005,12,09,17,21,3.90
2005,12,09,17,22,3.90
2005,12,09,17,23,3.90
2005,12,09,17,24,3.90
2005,12,09,17,25,3.90
2005,12,09,17,26,4.00
2005,12,09,17,27,4.00
2005,12,09,17,28,4.00
2005,12,09,17,29,4.00
2005,12,09,17,30,4.00
2005,12,09,17,31,4.00
2005,12,09,17,32,4.00
2005,12,09,17,33,4.00
2005,12,09,17,34,4.00
2005,12,09,17,35,3.90
2005,12,09,17,36,3.90
2005,12,09,17,37,3.90
2005,12,09,17,38,4.00
2005,12,09,17,39,3.90
2005,12,09,17,40,3.90
2005,12,09,17,41,3.90
2005,12,09,17,42,3.90
2005,12,09,17,43,3.90
2005,12,09,17,44,3.90
2005,12,09,17,45,3.90
2005,12,09,17,46,3.90
2005,12,09,17,47,3.80
2005,12,09,17,48,3.90
2005,12,09,17,49,3.90
2005,12,09,17,50,3.90
2005,12,09,17,51,3.90
2005,12,09,17,52,3.90
2005,12,09,17,53,3.90
2005,12,09,17,54,3.90
2005,12,09,17,55,3.90
2005,12,09,17,56,3.90
2005,12,09,17,57,3.90
2005,12,09,17,58,3.90
2005,12,09,17,59,3.90
2005,12,09,18,00,3.90
2005,12,09,18,01,3.90
2005,12,09,18,02,3.90
2005,12,09,18,03,3.90
2005,12,09,18,04,3.90
2005,12,09,18,05,3.90
2005,12,09,18,06,3.90
2005,12,09,18,07,3.90
2005,12,09,18,08,3.90
2005,12,09,18,09,3.90
2005,12,09,18,10,3.90
2005,12,09,18,11,3.90
2005,12,09,18,12,3.80
2005,12,09,18,13,3.80
2005,12,09,18,14,3.80
2005,12,09,18,15,3.80
2005,12,09,18,16,3.80
2005,12,09,18,17,3.80
2005,12,09,18,18,3.80
2005,12,09,18,19,3.80
2005,12,09,18,20,3.80
2005,12,09,18,21,3.80
2005,12,09,18,22,3.80
2005,12,09,18,23,3.80
2005,12,09,18,24,3.70
2005,12,09,18,25,3.70
2005,12,09,18,26,3.70
2005,12,09,18,27,3.70
2005,12,09,18,28,3.70
2005,12,09,18,29,3.70
2005,12,09,18,30,3.70
2005,12,09,18,31,3.70
2005,12,09,18,32,3.70
2005,12,09,18,33,3.70
2005,12,09,18,34,3.70
2005,12,09,18,35,3.70
2005,12,09,18,36,3.60
2005,12,09,18,37,3.60
2005,12,09,18,38,3.60
2005,12,09,18,39,3.60
2005,12,09,18,40,3.60
2005,12,09,18,41,3.60
2005,12,09,18,42,3.60
2005,12,09,18,43,3.60
2005,12,09,18,44,3.60
2005,12,09,18,45,3.60
2005,12,09,18,46,3.60
2005,12,09,18,47,3.60
2005,12,09,18,48,3.60
2005,12,09,18,49,3.60
2005,12,09,18,50,3.70
2005,12,09,18,51,3.70
2005,12,09,18,52,3.70
2005,12,09,18,53,3.70
2005,12,09,18,54,3.70
2005,12,09,18,55,3.70
2005,12,09,18,56,3.70
2005,12,09,18,57,3.70
2005,12,09,18,58,3.70
2005,12,09,18,59,3.70
2005,12,09,19,00,3.70
2005,12,09,19,01,3.70
2005,12,09,19,02,3.70
2005,12,09,19,03,3.70
2005,12,09,19,04,3.70
2005,12,09,19,05,3.70
2005,12,09,19,06,3.70
2005,12,09,19,07,3.70
2005,12,09,19,08,3.70
2005,12,09,19,09,3.70
2005,12,09,19,10,3.70
2005,12,09,19,11,3.70
2005,12,09,19,12,3.70
2005,12,09,19,13,3.70
2005,12,09,19,14,3.70
2005,12,09,19,15,3.70
2005,12,09,19,16,3.70
2005,12,09,19,17,3.80
2005,12,09,19,18,3.80
2005,12,09,19,19,3.80
2005,12,09,19,20,3.80
2005,12,09,19,21,3.80
2005,12,09,19,22,3.80
2005,12,09,19,23,3.80
2005,12,09,19,24,3.80
2005,12,09,19,25,3.80
2005,12,09,19,26,3.80
2005,12,09,19,27,3.80
2005,12,09,19,28,3.80
2005,12,09,19,29,3.80
2005,12,09,19,30,3.80
2005,12,09,19,31,3.80
2005,12,09,19,32,3.80
2005,12,09,19,33,3.80
2005,12,09,19,34,3.70
2005,12,09,19,35,3.70
2005,12,09,19,36,3.70
2005,12,09,19,37,3.70
2005,12,09,19,38,3.70
2005,12,09,19,39,3.70
2005,12,09,19,40,3.70
2005,12,09,19,41,3.70
2005,12,09,19,42,3.70
2005,12,09,19,43,3.70
2005,12,09,19,44,3.70
2005,12,09,19,45,3.70
2005,12,09,19,46,3.70
2005,12,09,19,47,3.70
2005,12,09,19,48,3.70
2005,12,09,19,49,3.60
2005,12,09,19,50,3.60
2005,12,09,19,51,3.60
2005,12,09,19,52,3.60
2005,12,09,19,53,3.60
2005,12,09,19,54,3.60
2005,12,09,19,55,3.60
2005,12,09,19,56,3.60
2005,12,09,19,57,3.60
2005,12,09,19,58,3.60
2005,12,09,19,59,3.60
2005,12,09,20,00,3.60
2005,12,09,20,01,3.50
2005,12,09,20,02,3.50
2005,12,09,20,03,3.50
2005,12,09,20,04,3.50
2005,12,09,20,05,3.50
2005,12,09,20,06,3.40
2005,12,09,20,07,3.40
2005,12,09,20,08,3.40
2005,12,09,20,09,3.40
2005,12,09,20,10,3.40
2005,12,09,20,11,3.40
2005,12,09,20,12,3.40
2005,12,09,20,13,3.40
2005,12,09,20,14,3.40
2005,12,09,20,15,3.40
2005,12,09,20,16,3.40
2005,12,09,20,17,3.40
2005,12,09,20,18,3.40
2005,12,09,20,19,3.40
2005,12,09,20,20,3.40
2005,12,09,20,21,3.40
2005,12,09,20,22,3.40
2005,12,09,20,23,3.40
2005,12,09,20,24,3.40
2005,12,09,20,25,3.40
2005,12,09,20,26,3.40
2005,12,09,20,27,3.40
2005,12,09,20,28,3.40
2005,12,09,20,29,3.40
2005,12,09,20,30,3.40
2005,12,09,20,31,3.40
2005,12,09,20,32,3.40
2005,12,09,20,33,3.40
2005,12,09,20,34,3.40
2005,12,09,20,35,3.40
2005,12,09,20,36,3.40
2005,12,09,20,37,3.40
2005,12,09,20,38,3.40
2005,12,09,20,39,3.40
2005,12,09,20,40,3.40
2005,12,09,20,41,3.40
2005,12,09,20,42,3.40
2005,12,09,20,43,3.30
2005,12,09,20,44,3.40
2005,12,09,20,45,3.40
2005,12,09,20,46,3.40
2005,12,09,20,47,3.40
2005,12,09,20,48,3.40
2005,12,09,20,49,3.40
2005,12,09,20,50,3.40
2005,12,09,20,51,3.40
2005,12,09,20,52,3.40
2005,12,09,20,53,3.40
2005,12,09,20,54,3.40
2005,12,09,20,55,3.50
2005,12,09,20,56,3.50
2005,12,09,20,57,3.50
2005,12,09,20,58,3.50
2005,12,09,20,59,3.50
2005,12,09,21,00,3.50
2005,12,09,21,01,3.50
2005,12,09,21,02,3.50
2005,12,09,21,03,3.60
2005,12,09,21,04,3.60
2005,12,09,21,05,3.60
2005,12,09,21,06,3.60
2005,12,09,21,07,3.70
2005,12,09,21,08,3.70
2005,12,09,21,09,3.70
2005,12,09,21,10,3.70
2005,12,09,21,11,3.70
2005,12,09,21,12,3.70
2005,12,09,21,13,3.80
2005,12,09,21,14,3.80
2005,12,09,21,15,3.80
2005,12,09,21,16,3.80
2005,12,09,21,17,3.80
2005,12,09,21,18,3.80
2005,12,09,21,19,3.80
2005,12,09,21,20,3.80
2005,12,09,21,21,3.80
2005,12,09,21,22,3.80
2005,12,09,21,23,3.80
2005,12,09,21,24,3.80
2005,12,09,21,25,3.80
2005,12,09,21,26,3.80
2005,12,09,21,27,3.80
2005,12,09,21,28,3.80
2005,12,09,21,29,3.80
2005,12,09,21,30,3.80
2005,12,09,21,31,3.80
2005,12,09,21,32,3.80
2005,12,09,21,33,3.80
2005,12,09,21,34,3.80
2005,12,09,21,35,3.80
2005,12,09,21,36,3.80
2005,12,09,21,37,3.80
2005,12,09,21,38,3.80
2005,12,09,21,39,3.80
2005,12,09,21,40,3.80
2005,12,09,21,41,3.80
2005,12,09,21,42,3.70
2005,12,09,21,43,3.70
2005,12,09,21,44,3.70
2005,12,09,21,45,3.70
2005,12,09,21,46,3.70
2005,12,09,21,47,3.70
2005,12,09,21,48,3.70
2005,12,09,21,49,3.70
2005,12,09,21,50,3.70
2005,12,09,21,51,3.70
2005,12,09,21,52,3.70
2005,12,09,21,53,3.80
2005,12,09,21,54,3.80
2005,12,09,21,55,3.80